#timestamp,LO_Frequency,Hit,StdDev 
1458687615.7,286047000.5,N
1458687635.5,286047000.0,N
1458687655.3,286047000.7,N
1458687675.2,286047000.7,N
1458687695.9,286046999.2,N
1458687715.7,286046998.4,N
1458687735.5,286047000.2,N
1458687755.4,286047001.9,N
1458687775.2,286047001.8,N
1458687795.0,286046999.8,N
1458687795.9,286046999.8,N
1458687815.8,286047001.8,N
1458687835.6,286047005.5,Y
1458687855.4,286047005.0,P
1458687875.3,286047007.4,N
1458687895.1,286047006.3,N
1458687915.8,286047005.6,N
1458687935.7,286047008.8,Y
1458687955.5,286046999.9,P
1458687975.3,286046998.1,N
1458687995.2,286046998.1,N
1458688015.0,286046998.8,N
1458688015.9,286046998.8,N
1458688035.7,286047002.8,N
1458688055.6,286047001.6,N
1458688075.4,286047004.4,N
1458688095.2,286047004.7,N
1458688115.1,286047003.5,N
1458688116.0,286047003.5,N
1458688135.8,286047007.3,N
1458688155.6,286047004.6,N
1458688175.5,286047007.6,N
1458688195.3,286047006.9,N
1458688215.1,286047007.3,N
1458688235.9,286047008.0,N
1458688255.7,286047007.5,N
1458688275.5,286047005.2,N
1458688295.4,286047010.5,Y
1458688315.2,286047005.1,P
1458688335.0,286047005.7,P
1458688335.9,286047005.7,P
1458688355.8,286047007.4,Y
1458688375.6,286047002.2,P
1458688395.4,286047003.0,N
1458688415.3,286047004.6,P
1458688435.1,286047001.7,N
1458688436.0,286047001.7,N
1458688455.8,286047001.8,N
1458688475.7,286047007.1,Y
1458688495.5,286047003.3,P
1458688515.3,286047004.1,P
1458688535.2,286047003.4,P
1458688555.9,286047005.1,Y
1458688575.7,286047000.6,P
1458688595.6,286047000.1,N
1458688615.4,286047000.5,N
1458688635.2,286047001.2,N
1458688655.0,286047002.1,N
1458688655.9,286047002.1,N
1458688675.8,286046999.8,N
1458688695.6,286047000.7,N
1458688715.4,286047001.0,N
1458688735.3,286047002.7,N
1458688755.1,286047004.1,Y
1458688775.8,286047004.1,P
1458688795.7,286047003.7,N
1458688815.5,286047007.3,P
1458688835.3,286047008.9,Y
1458688855.2,286047002.9,P
1458688875.0,286047001.8,N
1458688875.9,286047001.8,N
1458688895.7,286047002.6,N
1458688915.6,286047002.8,Y
1458688935.4,286047000.5,P
1458688955.2,286046999.0,N
1458688975.1,286046998.5,N
1458688976.0,286046998.5,N
1458688995.8,286046999.4,N
1458689015.6,286046999.1,N
1458689035.5,286046999.1,N
1458689055.3,286046998.1,N
1458689075.1,286047002.8,N
1458689095.9,286047003.2,N
1458689115.7,286047005.7,Y
1458689135.5,286047001.8,P
1458689155.4,286047004.7,P
1458689175.2,286047009.2,P
1458689195.0,286047005.2,N
1458689195.9,286047005.2,N
1458689215.8,286047004.5,N
1458689235.6,286047004.5,N
1458689255.4,286047004.7,N
1458689275.3,286047005.9,N
1458689295.1,286047001.6,N
1458689296.0,286047001.6,N
1458689315.8,286047000.2,N
1458689335.6,286046995.1,N
1458689355.5,286046994.9,N
1458689375.3,286046996.4,N
1458689395.1,286046996.4,N
1458689415.9,286046995.8,N
1458689435.7,286046995.8,N
1458689455.5,286046993.9,N
1458689475.4,286046994.7,N
1458689495.2,286046994.7,N
1458689515.0,286046994.7,N
1458689515.9,286046994.7,N
1458689535.8,286046992.0,N
1458689555.6,286046990.4,N
1458689575.4,286046993.1,N
1458689595.3,286046994.5,N
1458689615.1,286046993.0,N
1458689616.0,286046993.0,N
1458689635.8,286046991.7,N
1458689655.7,286046990.9,N
1458689675.5,286046990.8,N
1458689695.3,286046992.6,N
1458689715.2,286046994.8,N
1458689735.9,286046990.6,N
1458689755.7,286046990.0,N
1458689775.5,286046988.8,N
1458689795.4,286046992.1,N
1458689815.2,286046993.1,N
1458689835.1,286046989.4,Y
1458689836.0,286046989.4,P
1458689855.8,286046997.5,N
1458689875.6,286046997.7,N
1458689895.4,286046995.2,N
1458689915.3,286046995.0,N
1458689935.1,286046997.7,N
1458689955.8,286046995.1,N
1458689975.7,286046994.7,N
1458689995.5,286046993.4,N
1458690015.3,286046995.8,N
1458690035.2,286046997.8,N
1458690055.9,286046996.3,N
1458690075.7,286046996.7,N
1458690095.6,286046995.0,N
1458690115.4,286046996.1,N
1458690135.2,286046993.7,Y
1458690155.1,286047004.0,P
1458690156.0,286047004.0,N
1458690175.8,286047004.0,N
1458690195.6,286047003.5,N
1458690215.5,286047005.3,N
1458690235.3,286047003.0,N
1458690255.1,286047003.3,N
1458690275.8,286047007.4,N
1458690295.7,286047009.0,N
1458690315.5,286047006.5,N
1458690335.3,286047005.1,N
1458690355.2,286047001.6,N
1458690375.0,286047004.2,N
1458690375.9,286047004.2,N
1458690395.7,286047007.2,N
1458690415.6,286047007.8,N
1458690435.4,286047007.7,N
1458690455.2,286047009.1,Y
1458690475.1,286047003.0,P
1458690476.0,286047003.0,P
1458690495.8,286047003.6,P
1458690515.6,286047003.6,Y
1458690535.5,286046999.2,P
1458690555.3,286046996.5,N
1458690575.1,286046997.5,N
1458690595.9,286046993.9,N
1458690615.7,286046993.5,N
1458690635.5,286046993.2,N
1458690655.4,286046992.0,N
1458690675.2,286046991.9,N
1458690695.0,286046992.2,N
1458690695.9,286046992.2,N
1458690715.8,286046992.2,N
1458690735.6,286046992.9,N
1458690755.4,286046991.3,N
1458690775.2,286046991.0,N
1458690795.1,286046988.1,Y
1458690796.0,286046988.1,P
1458690815.8,286046994.8,N
1458690835.6,286046996.3,N
1458690855.5,286046993.3,N
1458690875.3,286046995.3,N
1458690895.1,286046996.2,N
1458690915.9,286046995.1,N
1458690935.7,286046995.6,N
1458690955.5,286046995.4,N
1458690975.4,286046997.9,N
1458690995.2,286046995.4,N
1458691015.0,286046997.7,N
1458691015.9,286046997.7,N
1458691035.8,286046998.1,N
1458691055.6,286046994.9,N
1458691075.4,286046993.7,N
1458691095.3,286046996.0,N
1458691115.1,286046995.5,N
1458691116.0,286046995.5,N
1458691135.8,286046995.7,N
1458691155.7,286046997.6,N
1458691175.5,286046996.8,N
1458691195.3,286046997.8,N
